| time (UTC) | temp C | wind direction | speed KPH | gust KPH | rain 1hr cm | rain 24hr cm | rain mn cm | humidity % | barometer mb |
| 20260506051309 | 10 | 276 | 6.4 | 8.0 | 0.00 | 0.00 | 0.00 | 98 | 1011.2 |
| 20260506050309 | 10 | 283 | 4.8 | 8.0 | 0.00 | 0.00 | 0.00 | 98 | 1011.2 |
| 20260506044309 | 10 | 269 | 1.6 | 4.8 | 0.00 | 0.00 | 0.00 | 97 | 1011.2 |
| 20260506043309 | 10 | 240 | 1.6 | 4.8 | 0.00 | 0.00 | 0.00 | 97 | 1011.2 |
| 20260506042309 | 10 | 241 | 1.6 | 6.4 | 0.00 | 0.00 | 0.00 | 97 | 1011.1 |
| 20260506041309 | 10 | 269 | 4.8 | 6.4 | 0.00 | 0.00 | 0.00 | 97 | 1011.1 |
| 20260506040309 | 10 | 269 | 1.6 | 8.0 | 0.00 | 0.00 | 0.00 | 97 | 1011.1 |
| 20260506035309 | 10 | 288 | 6.4 | 9.7 | 0.00 | 0.00 | 0.00 | 97 | 1011.1 |
| 20260506034309 | 10 | 274 | 4.8 | 9.7 | 0.00 | 0.00 | 0.00 | 97 | 1011.2 |
| 20260506033310 | 10 | 262 | 6.4 | 9.7 | 0.00 | 0.00 | 0.00 | 98 | 1011.2 |
| 20260506032309 | 10 | 272 | 6.4 | 9.7 | 0.00 | 0.00 | 0.00 | 98 | 1011.3 |
| 20260506031309 | 10 | 297 | 4.8 | 9.7 | 0.00 | 0.00 | 0.00 | 98 | 1011.3 |
| 20260506030309 | 10 | 274 | 6.4 | 11.3 | 0.00 | 0.00 | 0.00 | 97 | 1011.3 |
| 20260506023312 | 10 | 46 | 0.0 | 1.6 | 0.00 | 0.00 | 0.00 | 97 | 1011.3 |
| 20260506022311 | 10 | 223 | 0.0 | 3.2 | 0.00 | 0.00 | 0.00 | 97 | 1011.4 |
| 20260506021312 | 10 | 206 | 1.6 | 3.2 | 0.00 | 0.00 | 0.00 | 97 | 1011.4 |
| 20260506020311 | 10 | 1 | 0.0 | 4.8 | 0.00 | 0.00 | 0.00 | 97 | 1011.4 |
| 20260506015311 | 10 | 340 | 1.6 | 4.8 | 0.00 | 0.00 | 0.00 | 97 | 1011.4 |
| 20260506014312 | 10 | 306 | 3.2 | 4.8 | 0.00 | 0.00 | 0.00 | 97 | 1011.5 |
| 20260506013312 | 10 | 293 | 4.8 | 6.4 | 0.00 | 0.00 | 0.00 | 97 | 1011.5 |
| 20260506012311 | 10 | 28 | 0.0 | 3.2 | 0.00 | 0.00 | 0.00 | 97 | 1011.6 |
| 20260506011312 | 10 | 314 | 0.0 | 4.8 | 0.00 | 0.00 | 0.00 | 97 | 1011.6 |
| 20260506010311 | 10 | 349 | 1.6 | 4.8 | 0.00 | 0.00 | 0.00 | 97 | 1011.7 |
| 20260506005312 | 10 | 15 | 3.2 | 6.4 | 0.00 | 0.00 | 0.00 | 97 | 1011.8 |
| 20260506003311 | 10 | 324 | 3.2 | 4.8 | 0.00 | 0.00 | 0.00 | 97 | 1011.8 |
| 20260506002311 | 10 | 314 | 3.2 | 4.8 | 0.00 | 0.00 | 0.00 | 97 | 1011.8 |
| 20260506001311 | 10 | 314 | 3.2 | 4.8 | 0.00 | 0.00 | 0.00 | 97 | 1011.9 |
| 20260506000311 | 10 | 314 | 3.2 | 4.8 | 0.00 | 0.00 | 0.00 | 97 | 1011.9 |
| 20260505235311 | 10 | 340 | 3.2 | 8.0 | 0.00 | 0.00 | 0.00 | 97 | 1012.0 |
| 20260505234311 | 10 | 302 | 4.8 | 8.0 | 0.00 | 0.00 | 0.00 | 97 | 1012.0 |
| 20260505233311 | 10 | 321 | 1.6 | 4.8 | 0.00 | 0.00 | 0.00 | 97 | 1012.0 |
| 20260505232311 | 10 | 347 | 4.8 | 6.4 | 0.00 | 0.00 | 0.00 | 97 | 1012.1 |
| 20260505230311 | 10 | 331 | 1.6 | 6.4 | 0.00 | 0.00 | 0.00 | 97 | 1012.2 |
| 20260505225311 | 10 | 324 | 1.6 | 4.8 | 0.00 | 0.00 | 0.00 | 97 | 1012.2 |
| 20260505224311 | 10 | 279 | 1.6 | 4.8 | 0.00 | 0.00 | 0.00 | 97 | 1012.2 |
| 20260505223311 | 10 | 283 | 1.6 | 4.8 | 0.00 | 0.00 | 0.00 | 97 | 1012.3 |
| 20260505222311 | 11 | 295 | 3.2 | 8.0 | 0.00 | 0.00 | 0.00 | 97 | 1012.3 |
| 20260505220311 | 11 | 320 | 4.8 | 6.4 | 0.00 | 0.00 | 0.00 | 97 | 1012.3 |
| 20260505215311 | 11 | 317 | 3.2 | 9.7 | 0.00 | 3.71 | 3.71 | 97 | 1012.3 |
| 20260505214311 | 10 | 314 | 4.8 | 11.3 | 0.00 | 3.71 | 3.71 | 97 | 1012.3 |
| 20260505213311 | 10 | 319 | 3.2 | 6.4 | 0.00 | 3.71 | 3.71 | 97 | 1012.5 |
| 20260505212311 | 10 | 324 | 6.4 | 9.7 | 0.00 | 3.71 | 3.71 | 97 | 1012.4 |
| 20260505210311 | 11 | 331 | 6.4 | 9.7 | 0.00 | 3.71 | 3.71 | 97 | 1012.4 |
| 20260505205311 | 11 | 295 | 6.4 | 12.9 | 0.00 | 3.71 | 3.71 | 97 | 1012.4 |
| 20260505204311 | 11 | 317 | 6.4 | 12.9 | 0.00 | 3.71 | 3.71 | 97 | 1012.4 |
| 20260505203311 | 11 | 321 | 8.0 | 14.5 | 0.00 | 3.71 | 3.71 | 97 | 1012.3 |
| 20260505202311 | 11 | 347 | 6.4 | 14.5 | 0.00 | 3.71 | 3.71 | 97 | 1012.3 |
| 20260505201311 | 11 | 309 | 8.0 | 14.5 | 0.00 | 3.71 | 3.71 | 97 | 1012.3 |
| 20260505200311 | 11 | 321 | 6.4 | 11.3 | 0.00 | 3.71 | 3.71 | 97 | 1012.1 |
| 20260505195311 | 11 | 16 | 6.4 | 16.1 | 0.00 | 3.71 | 3.71 | 97 | 1012.1 |
| 20260505194312 | 11 | 334 | 8.0 | 17.7 | 0.00 | 3.71 | 3.71 | 97 | 1012.0 |
| 20260505193311 | 11 | 305 | 9.7 | 14.5 | 0.00 | 3.71 | 3.71 | 98 | 1011.9 |
| 20260505191311 | 11 | 297 | 9.7 | 14.5 | 0.00 | 3.71 | 3.71 | 98 | 1011.9 |
| 20260505190311 | 11 | 338 | 4.8 | 11.3 | 0.00 | 3.71 | 3.71 | 98 | 1012.0 |
| 20260505185311 | 11 | 11 | 6.4 | 16.1 | 0.00 | 3.71 | 3.71 | 98 | 1011.8 |
| 20260505184311 | 11 | 18 | 6.4 | 12.9 | 0.00 | 3.71 | 3.71 | 98 | 1011.8 |
| 20260505183311 | 11 | 316 | 9.7 | 16.1 | 0.00 | 3.71 | 3.71 | 98 | 1011.8 |
| 20260505182311 | 11 | 324 | 6.4 | 14.5 | 0.00 | 3.71 | 3.71 | 98 | 1011.8 |
| 20260505181311 | 11 | 27 | 8.0 | 20.9 | 0.00 | 3.71 | 3.71 | 98 | 1011.7 |
| 20260505175311 | 11 | 340 | 8.0 | 14.5 | 0.00 | 3.71 | 3.71 | 98 | 1011.9 |
| 20260505174311 | 11 | 290 | 8.0 | 20.9 | 0.00 | 3.71 | 3.71 | 98 | 1011.9 |
| 20260505173311 | 11 | 307 | 9.7 | 17.7 | 0.00 | 3.71 | 3.71 | 99 | 1011.8 |
| 20260505172311 | 11 | 1 | 11.3 | 17.7 | 0.00 | 3.71 | 3.71 | 99 | 1011.8 |
| 20260505170311 | 12 | 37 | 8.0 | 14.5 | 0.00 | 3.71 | 3.71 | 99 | 1011.9 |
| 20260505165311 | 12 | 13 | 11.3 | 14.5 | 0.00 | 3.71 | 3.71 | 99 | 1011.9 |
| 20260505164310 | 11 | 322 | 9.7 | 17.7 | 0.03 | 3.71 | 3.71 | 99 | 1011.9 |
| 20260505163311 | 12 | 4 | 9.7 | 16.1 | 0.05 | 3.71 | 3.71 | 99 | 1011.9 |
| 20260505162310 | 11 | 354 | 9.7 | 16.1 | 0.05 | 3.71 | 3.71 | 99 | 1011.8 |
| 20260505161311 | 11 | 348 | 6.4 | 24.1 | 0.05 | 3.71 | 3.71 | 99 | 1012.0 |
| 20260505160311 | 11 | 351 | 8.0 | 19.3 | 0.08 | 3.71 | 3.71 | 99 | 1011.9 |
| 20260505153310 | 11 | 354 | 11.3 | 19.3 | 0.05 | 3.68 | 3.68 | 99 | 1011.9 |
| 20260505152310 | 11 | 333 | 6.4 | 19.3 | 0.08 | 3.66 | 3.66 | 99 | 1011.9 |
| 20260505150310 | 11 | 21 | 8.0 | 17.7 | 0.10 | 3.63 | 3.63 | 99 | 1011.8 |
| 20260505140310 | 11 | 18 | 8.0 | 17.7 | 0.15 | 3.53 | 3.53 | 99 | 1011.8 |
| 20260505130310 | 11 | 309 | 4.8 | 14.5 | 0.13 | 3.40 | 3.40 | 99 | 1011.8 |
| 20260505124310 | 11 | 44 | 9.7 | 16.1 | 0.10 | 3.35 | 3.35 | 99 | 1011.7 |
| 20260505123312 | 11 | 331 | 8.0 | 17.7 | 0.08 | 3.33 | 3.33 | 99 | 1011.7 |
| 20260505122310 | 11 | 32 | 6.4 | 14.5 | 0.08 | 3.33 | 3.33 | 99 | 1011.8 |
| 20260505121310 | 11 | 11 | 6.4 | 14.5 | 0.08 | 3.30 | 3.30 | 99 | 1011.7 |
| 20260505120310 | 11 | 11 | 4.8 | 16.1 | 0.08 | 3.28 | 3.28 | 99 | 1011.8 |
| 20260505115310 | 11 | 20 | 8.0 | 16.1 | 0.10 | 3.28 | 3.28 | 99 | 1011.8 |
| 20260505114310 | 11 | 46 | 4.8 | 11.3 | 0.08 | 3.25 | 3.25 | 99 | 1011.8 |
| 20260505113310 | 11 | 300 | 4.8 | 16.1 | 0.10 | 3.25 | 3.25 | 99 | 1011.9 |
| 20260505112310 | 11 | 25 | 4.8 | 16.1 | 0.08 | 3.25 | 3.25 | 99 | 1011.8 |
| 20260505111310 | 11 | 349 | 6.4 | 11.3 | 0.10 | 3.23 | 3.23 | 99 | 1011.9 |
| 20260505110310 | 11 | 124 | 3.2 | 17.7 | 0.10 | 3.20 | 3.20 | 99 | 1011.9 |
| 20260505101310 | 11 | 178 | 1.6 | 12.9 | 0.18 | 3.12 | 3.12 | 99 | 1011.7 |
| 20260505095310 | 11 | 13 | 4.8 | 16.1 | 0.20 | 3.07 | 3.07 | 99 | 1011.8 |
| 20260505094310 | 11 | 326 | 9.7 | 17.7 | 0.20 | 3.05 | 3.05 | 99 | 1011.7 |
| 20260505093310 | 11 | 68 | 4.8 | 11.3 | 0.20 | 3.02 | 3.02 | 99 | 1011.5 |
| 20260505092310 | 11 | 41 | 4.8 | 14.5 | 0.23 | 2.97 | 2.97 | 99 | 1011.6 |
| 20260505091310 | 11 | 51 | 4.8 | 12.9 | 0.23 | 2.95 | 2.95 | 99 | 1011.6 |
| 20260505090310 | 11 | 4 | 6.4 | 14.5 | 0.28 | 2.92 | 2.92 | 98 | 1011.5 |
| 20260505085310 | 11 | 314 | 4.8 | 16.1 | 0.33 | 2.87 | 2.87 | 98 | 1011.5 |
| 20260505084310 | 11 | 84 | 4.8 | 16.1 | 0.33 | 2.87 | 2.87 | 98 | 1011.6 |
| 20260505083310 | 11 | 4 | 8.0 | 16.1 | 0.41 | 2.82 | 2.82 | 98 | 1011.5 |
| 20260505082311 | 11 | 23 | 8.0 | 22.5 | 0.46 | 2.77 | 2.77 | 98 | 1011.4 |
| 20260505081310 | 11 | 1 | 6.4 | 11.3 | 0.51 | 2.69 | 2.69 | 98 | 1011.5 |
| 20260505080309 | 11 | 307 | 8.0 | 11.3 | 0.51 | 2.64 | 2.64 | 98 | 1011.5 |
| 20260505075310 | 10 | 1 | 3.2 | 8.0 | 0.51 | 2.57 | 2.57 | 98 | 1011.6 |
| 20260505074309 | 10 | 46 | 4.8 | 11.3 | 0.51 | 2.51 | 2.51 | 98 | 1011.5 |
| 20260505073309 | 10 | 348 | 6.4 | 14.5 | 0.51 | 2.41 | 2.41 | 98 | 1011.6 |
| 20260505072309 | 10 | 18 | 6.4 | 11.3 | 0.46 | 2.31 | 2.31 | 98 | 1011.5 |
| 20260505071309 | 10 | 354 | 4.8 | 9.7 | 0.38 | 2.21 | 2.21 | 98 | 1011.6 |
| 20260505070309 | 10 | 351 | 6.4 | 9.7 | 0.33 | 2.11 | 2.11 | 98 | 1011.6 |
| 20260505065309 | 10 | 353 | 6.4 | 11.3 | 0.33 | 2.06 | 2.06 | 98 | 1011.6 |
| 20260505063309 | 10 | 334 | 4.8 | 11.3 | 0.25 | 1.93 | 1.93 | 98 | 1011.7 |
| 20260505062309 | 10 | 295 | 6.4 | 12.9 | 0.23 | 1.83 | 1.83 | 98 | 1011.7 |
| 20260505061309 | 10 | 284 | 6.4 | 11.3 | 0.28 | 1.83 | 1.83 | 98 | 1011.6 |
| 20260505060311 | 10 | 13 | 4.8 | 12.9 | 0.28 | 1.78 | 1.78 | 97 | 1011.6 |
| 20260505055309 | 10 | 314 | 8.0 | 12.9 | 0.28 | 1.75 | 1.75 | 97 | 1011.6 |
| 20260505054309 | 10 | 300 | 6.4 | 11.3 | 0.25 | 1.70 | 1.70 | 97 | 1011.6 |
| 20260505053309 | 10 | 46 | 4.8 | 9.7 | 0.25 | 1.65 | 1.65 | 97 | 1011.8 |